TimeCDT,TemperatureF,Dew PointF,Humidity,Sea Level PressureIn,VisibilityMPH,Wind Direction,Wind SpeedMPH,Gust SpeedMPH,PrecipitationIn,Events,Conditions,WindDirDegrees,DateUTC
12:15 AM,62.6,48.2,59,29.93,10.0,SSE,11.5,-,N/A,,Scattered Clouds,150,2013-04-23 05:15:00
12:35 AM,62.6,48.2,59,29.93,10.0,SSE,10.4,-,N/A,,Clear,150,2013-04-23 05:35:00
12:55 AM,62.6,48.2,59,29.93,10.0,SSE,10.4,-,N/A,,Clear,150,2013-04-23 05:55:00
1:15 AM,60.8,50.0,68,29.93,10.0,SE,8.1,-,N/A,Rain,Light Rain,140,2013-04-23 06:15:00
1:35 AM,60.8,50.0,68,29.91,10.0,East,5.8,-,N/A,Rain,Light Rain,90,2013-04-23 06:35:00
1:55 AM,59.0,50.0,72,29.90,10.0,East,6.9,-,N/A,Rain,Light Rain,90,2013-04-23 06:55:00
2:15 AM,60.8,48.2,63,29.88,10.0,ESE,8.1,-,N/A,,Clear,110,2013-04-23 07:15:00
2:35 AM,60.8,48.2,63,29.88,10.0,SE,8.1,-,N/A,,Clear,130,2013-04-23 07:35:00
2:55 AM,60.8,46.4,59,29.84,10.0,ESE,10.4,-,N/A,,Clear,110,2013-04-23 07:55:00
3:15 AM,59.0,46.4,63,29.87,10.0,SSE,4.6,-,N/A,,Scattered Clouds,160,2013-04-23 08:15:00
3:35 AM,59.0,48.2,67,29.85,10.0,SSE,6.9,-,N/A,Rain,Light Rain,160,2013-04-23 08:35:00
3:55 AM,59.0,50.0,72,29.85,10.0,SSW,6.9,-,0.01,Rain-Thunderstorm,Heavy Thunderstorms and Rain,200,2013-04-23 08:55:00
4:15 AM,55.4,51.8,88,29.88,10.0,NNW,21.9,27.6,0.01,Rain-Thunderstorm,Light Thunderstorms and Rain,330,2013-04-23 09:15:00
4:35 AM,55.4,51.8,88,29.90,10.0,NNW,12.7,17.3,0.03,Rain-Thunderstorm,Light Thunderstorms and Rain,340,2013-04-23 09:35:00
4:55 AM,55.4,51.8,88,29.89,10.0,North,3.5,-,0.04,Rain,Rain,360,2013-04-23 09:55:00
5:15 AM,53.6,51.8,94,29.89,10.0,North,6.9,-,N/A,Rain,Light Rain,350,2013-04-23 10:15:00
5:35 AM,53.6,51.8,94,29.91,7.0,NNW,10.4,-,N/A,Rain,Light Rain,330,2013-04-23 10:35:00
5:55 AM,51.8,50.0,94,29.93,7.0,NNW,15.0,19.6,N/A,,Drizzle,340,2013-04-23 10:55:00
6:15 AM,48.2,46.4,93,29.93,10.0,North,13.8,19.6,N/A,,Overcast,360,2013-04-23 11:15:00
6:35 AM,46.4,44.6,93,29.93,10.0,North,11.5,20.7,N/A,,Overcast,10,2013-04-23 11:35:00
6:55 AM,46.4,44.6,93,29.94,10.0,NNE,8.1,17.3,N/A,,Overcast,20,2013-04-23 11:55:00
7:15 AM,46.4,44.6,93,29.95,10.0,North,6.9,-,N/A,,Overcast,350,2013-04-23 12:15:00
7:35 AM,46.4,44.6,93,29.96,10.0,North,10.4,17.3,N/A,,Overcast,10,2013-04-23 12:35:00
7:55 AM,44.6,42.8,93,29.96,10.0,North,10.4,-,N/A,,Light Drizzle,10,2013-04-23 12:55:00
8:15 AM,44.6,42.8,93,29.98,10.0,North,10.4,17.3,N/A,,Overcast,350,2013-04-23 13:15:00
8:35 AM,42.8,41.0,93,30.00,10.0,North,13.8,21.9,N/A,,Overcast,360,2013-04-23 13:35:00
8:55 AM,42.8,41.0,93,29.99,7.0,North,11.5,17.3,N/A,,Drizzle,10,2013-04-23 13:55:00
9:15 AM,42.8,41.0,93,30.00,4.0,NNW,10.4,17.3,N/A,,Drizzle,340,2013-04-23 14:15:00
9:35 AM,42.8,41.0,93,30.01,3.0,North,15.0,-,N/A,,Drizzle,350,2013-04-23 14:35:00
9:55 AM,41.0,39.2,93,30.01,2.5,North,9.2,16.1,N/A,Rain,Rain,350,2013-04-23 14:55:00
10:15 AM,41.0,39.2,93,30.01,2.5,North,13.8,20.7,N/A,,Drizzle,360,2013-04-23 15:15:00
10:35 AM,41.0,37.4,87,30.02,3.0,North,12.7,18.4,N/A,,Light Drizzle,10,2013-04-23 15:35:00
10:55 AM,41.0,37.4,87,30.03,3.0,North,10.4,16.1,N/A,,Overcast,360,2013-04-23 15:55:00
11:15 AM,41.0,37.4,87,30.05,4.0,North,9.2,20.7,N/A,,Overcast,360,2013-04-23 16:15:00
11:35 AM,41.0,37.4,87,30.05,3.0,NNW,10.4,-,N/A,,Drizzle,340,2013-04-23 16:35:00
11:55 AM,41.0,37.4,87,30.05,2.5,North,11.5,17.3,N/A,,Drizzle,360,2013-04-23 16:55:00
12:15 PM,39.2,37.4,93,30.06,2.5,North,9.2,-,N/A,,Drizzle,350,2013-04-23 17:15:00
12:35 PM,39.2,37.4,93,30.07,2.5,NNW,9.2,16.1,N/A,,Light Drizzle,340,2013-04-23 17:35:00
12:55 PM,39.2,37.4,93,30.06,3.0,NNW,11.5,17.3,N/A,,Overcast,340,2013-04-23 17:55:00
1:15 PM,39.2,37.4,93,30.06,4.0,North,13.8,17.3,N/A,,Overcast,350,2013-04-23 18:15:00
1:35 PM,39.2,37.4,93,30.06,3.0,North,12.7,18.4,N/A,,Overcast,350,2013-04-23 18:35:00
1:55 PM,37.4,37.4,100,30.06,4.0,North,9.2,17.3,N/A,,Overcast,350,2013-04-23 18:55:00
2:15 PM,37.4,37.4,100,30.07,3.0,North,12.7,18.4,N/A,,Light Drizzle,350,2013-04-23 19:15:00
2:35 PM,37.4,37.4,100,30.08,3.0,North,10.4,17.3,N/A,,Drizzle,350,2013-04-23 19:35:00
2:55 PM,37.4,35.6,93,30.08,2.5,North,11.5,18.4,N/A,,Light Drizzle,350,2013-04-23 19:55:00
3:15 PM,37.4,35.6,93,30.08,3.0,NNW,9.2,-,N/A,,Drizzle,340,2013-04-23 20:15:00
3:35 PM,37.4,35.6,93,30.09,4.0,North,8.1,-,N/A,,Light Drizzle,10,2013-04-23 20:35:00
3:55 PM,37.4,35.6,93,30.08,3.0,North,9.2,16.1,N/A,,Overcast,360,2013-04-23 20:55:00
4:15 PM,37.4,35.6,93,30.09,5.0,North,6.9,17.3,N/A,,Overcast,360,2013-04-23 21:15:00
4:35 PM,37.4,35.6,93,30.08,3.0,North,15.0,18.4,N/A,,Light Drizzle,350,2013-04-23 21:35:00
4:55 PM,37.4,35.6,93,30.09,7.0,North,10.4,17.3,N/A,,Overcast,360,2013-04-23 21:55:00
5:15 PM,37.4,35.6,93,30.09,7.0,North,11.5,21.9,N/A,,Overcast,360,2013-04-23 22:15:00
5:35 PM,37.4,35.6,93,30.10,10.0,North,12.7,17.3,N/A,,Overcast,350,2013-04-23 22:35:00
5:55 PM,37.4,35.6,93,30.11,10.0,North,9.2,16.1,N/A,,Overcast,350,2013-04-23 22:55:00
6:15 PM,35.6,33.8,93,30.12,10.0,North,10.4,18.4,N/A,,Overcast,360,2013-04-23 23:15:00
6:35 PM,35.6,33.8,93,30.12,7.0,North,13.8,20.7,N/A,,Overcast,350,2013-04-23 23:35:00
6:55 PM,35.6,33.8,93,30.13,10.0,North,10.4,17.3,N/A,,Overcast,350,2013-04-23 23:55:00
7:15 PM,35.6,33.8,93,30.13,10.0,North,9.2,17.3,N/A,,Overcast,360,2013-04-24 00:15:00
7:35 PM,35.6,33.8,93,30.14,10.0,North,10.4,17.3,N/A,,Overcast,350,2013-04-24 00:35:00
7:55 PM,35.6,33.8,93,30.15,10.0,North,8.1,17.3,N/A,,Overcast,350,2013-04-24 00:55:00
8:15 PM,35.6,33.8,93,30.16,10.0,North,9.2,-,N/A,,Overcast,350,2013-04-24 01:15:00
8:35 PM,35.6,33.8,93,30.16,5.0,North,9.2,-,N/A,,Overcast,350,2013-04-24 01:35:00
8:55 PM,35.6,33.8,93,30.17,10.0,North,11.5,16.1,N/A,,Overcast,360,2013-04-24 01:55:00
9:15 PM,35.6,33.8,93,30.19,10.0,North,11.5,17.3,N/A,,Overcast,360,2013-04-24 02:15:00
9:35 PM,35.6,33.8,93,30.20,10.0,North,10.4,-,N/A,,Overcast,350,2013-04-24 02:35:00
9:55 PM,35.6,32.0,87,30.20,10.0,North,13.8,18.4,N/A,,Overcast,360,2013-04-24 02:55:00
10:15 PM,35.6,32.0,87,30.21,10.0,North,12.7,17.3,N/A,,Overcast,10,2013-04-24 03:15:00
10:35 PM,35.6,32.0,87,30.22,10.0,North,9.2,-,N/A,,Overcast,350,2013-04-24 03:35:00
10:55 PM,35.6,32.0,87,30.22,10.0,North,10.4,18.4,N/A,,Overcast,350,2013-04-24 03:55:00
11:15 PM,35.6,32.0,87,30.22,10.0,North,8.1,16.1,N/A,,Overcast,350,2013-04-24 04:15:00
11:35 PM,35.6,32.0,87,30.23,10.0,NNW,5.8,9.2,N/A,,Overcast,340,2013-04-24 04:35:00
11:55 PM,37.4,32.0,81,30.24,10.0,NW,5.8,-,N/A,,Overcast,310,2013-04-24 04:55:00